View from above orbital plane
|
View from above satellite
|
Ground track
|
The orbit data is extracted from the following two-line orbital elements,
1 28359U 04022B 21018.72752786 .00001307 00000-0 13285-3 0 9994
2 28359 49.5041 168.6211 4651941 271.5395 37.6728 6.24217767366942
Epoch (UTC): | 18 January 2021 17:27:38 |
Eccentricity: | 0.4651941 |
inclination: | 49.5041° |
perigee height: | 285 km |
apogee height: | 11878 km |
right ascension of ascending node: | 168.6211° |
argument of perigee: | 271.5395° |
revolutions per day: | 6.24217767 |
mean anomaly at epoch: | 37.6728° |
orbit number at epoch: | 36694 |
The dashed part of the orbit path shows where the satellite is in the earth's shadow,
|
|